Year,Month,Day,Hour,Minute,Value (Times are PST for temperature in C)
2012,10,01,00,00,9.50
2012,10,01,00,01,9.50
2012,10,01,00,02,9.50
2012,10,01,00,03,9.40
2012,10,01,00,04,9.40
2012,10,01,00,05,9.40
2012,10,01,00,06,9.40
2012,10,01,00,07,9.40
2012,10,01,00,08,9.40
2012,10,01,00,09,9.40
2012,10,01,00,10,9.40
2012,10,01,00,11,9.30
2012,10,01,00,12,9.30
2012,10,01,00,13,9.30
2012,10,01,00,14,9.30
2012,10,01,00,15,9.30
2012,10,01,00,16,9.30
2012,10,01,00,17,9.30
2012,10,01,00,18,9.30
2012,10,01,00,19,9.30
2012,10,01,00,20,9.30
2012,10,01,00,21,9.30
2012,10,01,00,22,9.30
2012,10,01,00,23,9.30
2012,10,01,00,24,9.30
2012,10,01,00,25,9.30
2012,10,01,00,26,9.30
2012,10,01,00,27,9.30
2012,10,01,00,28,9.30
2012,10,01,00,29,9.30
2012,10,01,00,30,9.30
2012,10,01,00,31,9.30
2012,10,01,00,32,9.30
2012,10,01,00,33,9.30
2012,10,01,00,34,9.30
2012,10,01,00,35,9.40
2012,10,01,00,36,9.40
2012,10,01,00,37,9.40
2012,10,01,00,38,9.40
2012,10,01,00,39,9.50
2012,10,01,00,40,9.50
2012,10,01,00,41,9.50
2012,10,01,00,42,9.60
2012,10,01,00,43,9.60
2012,10,01,00,44,9.60
2012,10,01,00,45,9.60
2012,10,01,00,46,9.60
2012,10,01,00,47,9.70
2012,10,01,00,48,9.70
2012,10,01,00,49,9.70
2012,10,01,00,50,9.70
2012,10,01,00,51,9.70
2012,10,01,00,52,9.70
2012,10,01,00,53,9.70
2012,10,01,00,54,9.80
2012,10,01,00,55,9.80
2012,10,01,00,56,9.80
2012,10,01,00,57,9.80
2012,10,01,00,58,9.90
2012,10,01,00,59,9.90
2012,10,01,01,00,9.90
2012,10,01,01,01,9.90
2012,10,01,01,02,9.90
2012,10,01,01,03,9.90
2012,10,01,01,04,9.90
2012,10,01,01,05,9.90
2012,10,01,01,06,9.90
2012,10,01,01,07,9.80
2012,10,01,01,08,9.80
2012,10,01,01,09,9.80
2012,10,01,01,10,9.70
2012,10,01,01,11,9.70
2012,10,01,01,12,9.60
2012,10,01,01,13,9.60
2012,10,01,01,14,9.60
2012,10,01,01,15,9.50
2012,10,01,01,16,9.50
2012,10,01,01,17,9.50
2012,10,01,01,18,9.40
2012,10,01,01,19,9.40
2012,10,01,01,20,9.40
2012,10,01,01,21,9.40
2012,10,01,01,22,9.40
2012,10,01,01,23,9.30
2012,10,01,01,24,9.30
2012,10,01,01,25,9.30
2012,10,01,01,26,9.30
2012,10,01,01,27,9.30
2012,10,01,01,28,9.30
2012,10,01,01,29,9.30
2012,10,01,01,30,9.30
2012,10,01,01,31,9.30
2012,10,01,01,32,9.30
2012,10,01,01,33,9.30
2012,10,01,01,34,9.30
2012,10,01,01,35,9.30
2012,10,01,01,36,9.30
2012,10,01,01,37,9.30
2012,10,01,01,38,9.30
2012,10,01,01,39,9.20
2012,10,01,01,40,9.20
2012,10,01,01,41,9.20
2012,10,01,01,42,9.20
2012,10,01,01,43,9.20
2012,10,01,01,44,9.20
2012,10,01,01,45,9.20
2012,10,01,01,46,9.20
2012,10,01,01,47,9.20
2012,10,01,01,48,9.20
2012,10,01,01,49,9.30
2012,10,01,01,50,9.30
2012,10,01,01,51,9.30
2012,10,01,01,52,9.30
2012,10,01,01,53,9.30
2012,10,01,01,54,9.20
2012,10,01,01,55,9.20
2012,10,01,01,56,9.20
2012,10,01,01,57,9.20
2012,10,01,01,58,9.20
2012,10,01,01,59,9.20
2012,10,01,02,00,9.20
2012,10,01,02,01,9.20
2012,10,01,02,02,9.20
2012,10,01,02,03,9.20
2012,10,01,02,04,9.10
2012,10,01,02,05,9.10
2012,10,01,02,06,9.10
2012,10,01,02,07,9.10
2012,10,01,02,08,9.10
2012,10,01,02,09,9.10
2012,10,01,02,10,9.10
2012,10,01,02,11,9.10
2012,10,01,02,12,9.10
2012,10,01,02,13,9.00
2012,10,01,02,14,9.00
2012,10,01,02,15,9.00
2012,10,01,02,16,9.00
2012,10,01,02,17,9.00
2012,10,01,02,18,9.00
2012,10,01,02,19,9.00
2012,10,01,02,20,9.00
2012,10,01,02,21,9.00
2012,10,01,02,22,8.90
2012,10,01,02,23,8.90
2012,10,01,02,24,8.90
2012,10,01,02,25,8.90
2012,10,01,02,26,8.90
2012,10,01,02,27,8.90
2012,10,01,02,28,8.90
2012,10,01,02,29,8.90
2012,10,01,02,30,8.90
2012,10,01,02,31,8.90
2012,10,01,02,32,8.90
2012,10,01,02,33,8.90
2012,10,01,02,34,8.90
2012,10,01,02,35,8.90
2012,10,01,02,36,8.90
2012,10,01,02,37,8.90
2012,10,01,02,38,8.80
2012,10,01,02,39,8.80
2012,10,01,02,40,8.80
2012,10,01,02,41,8.80
2012,10,01,02,42,8.80
2012,10,01,02,43,8.80
2012,10,01,02,44,8.80
2012,10,01,02,45,8.80
2012,10,01,02,46,8.80
2012,10,01,02,47,8.80
2012,10,01,02,48,8.80
2012,10,01,02,49,8.80
2012,10,01,02,50,8.80
2012,10,01,02,51,8.80
2012,10,01,02,52,8.80
2012,10,01,02,53,8.80
2012,10,01,02,54,8.80
2012,10,01,02,55,8.80
2012,10,01,02,56,8.80
2012,10,01,02,57,8.70
2012,10,01,02,58,8.70
2012,10,01,02,59,8.70
2012,10,01,03,00,8.70
2012,10,01,03,01,8.70
2012,10,01,03,02,8.70
2012,10,01,03,03,8.70
2012,10,01,03,04,8.70
2012,10,01,03,05,8.70
2012,10,01,03,06,8.70
2012,10,01,03,07,8.70
2012,10,01,03,08,8.70
2012,10,01,03,09,8.70
2012,10,01,03,10,8.70
2012,10,01,03,11,8.70
2012,10,01,03,12,8.70
2012,10,01,03,13,8.70
2012,10,01,03,14,8.70
2012,10,01,03,15,8.70
2012,10,01,03,16,8.60
2012,10,01,03,17,8.60
2012,10,01,03,18,8.60
2012,10,01,03,19,8.60
2012,10,01,03,20,8.60
2012,10,01,03,21,8.60
2012,10,01,03,22,8.60
2012,10,01,03,23,8.60
2012,10,01,03,24,8.60
2012,10,01,03,25,8.60
2012,10,01,03,26,8.60
2012,10,01,03,27,8.60
2012,10,01,03,28,8.60
2012,10,01,03,29,8.60
2012,10,01,03,30,8.60
2012,10,01,03,31,8.70
2012,10,01,03,32,8.70
2012,10,01,03,33,8.70
2012,10,01,03,34,8.70
2012,10,01,03,35,8.70
2012,10,01,03,36,8.70
2012,10,01,03,37,8.60
2012,10,01,03,38,8.60
2012,10,01,03,39,8.60
2012,10,01,03,40,8.60
2012,10,01,03,41,8.60
2012,10,01,03,42,8.60
2012,10,01,03,43,8.60
2012,10,01,03,44,8.60
2012,10,01,03,45,8.60
2012,10,01,03,46,8.50
2012,10,01,03,47,8.50
2012,10,01,03,48,8.50
2012,10,01,03,49,8.50
2012,10,01,03,50,8.40
2012,10,01,03,51,8.40
2012,10,01,03,52,8.40
2012,10,01,03,53,8.40
2012,10,01,03,54,8.40
2012,10,01,03,55,8.40
2012,10,01,03,56,8.40
2012,10,01,03,57,8.40
2012,10,01,03,58,8.40
2012,10,01,03,59,8.40
2012,10,01,04,00,8.40
2012,10,01,04,01,8.40
2012,10,01,04,02,8.40
2012,10,01,04,03,8.40
2012,10,01,04,04,8.30
2012,10,01,04,05,8.30
2012,10,01,04,06,8.30
2012,10,01,04,07,8.30
2012,10,01,04,08,8.30
2012,10,01,04,09,8.30
2012,10,01,04,10,8.30
2012,10,01,04,11,8.30
2012,10,01,04,12,8.30
2012,10,01,04,13,8.30
2012,10,01,04,14,8.30
2012,10,01,04,15,8.30
2012,10,01,04,16,8.30
2012,10,01,04,17,8.30
2012,10,01,04,18,8.30
2012,10,01,04,19,8.30
2012,10,01,04,20,8.30
2012,10,01,04,21,8.30
2012,10,01,04,22,8.30
2012,10,01,04,23,8.30
2012,10,01,04,24,8.30
2012,10,01,04,25,8.30
2012,10,01,04,26,8.30
2012,10,01,04,27,8.30
2012,10,01,04,28,8.30
2012,10,01,04,29,8.30
2012,10,01,04,30,8.30
2012,10,01,04,31,8.30
2012,10,01,04,32,8.30
2012,10,01,04,33,8.30
2012,10,01,04,34,8.30
2012,10,01,04,35,8.30
2012,10,01,04,36,8.30
2012,10,01,04,37,8.30
2012,10,01,04,38,8.30
2012,10,01,04,39,8.20
2012,10,01,04,40,8.20
2012,10,01,04,41,8.20
2012,10,01,04,42,8.20
2012,10,01,04,43,8.20
2012,10,01,04,44,8.20
2012,10,01,04,45,8.20
2012,10,01,04,46,8.20
2012,10,01,04,47,8.20
2012,10,01,04,48,8.20
2012,10,01,04,49,8.20
2012,10,01,04,50,8.20
2012,10,01,04,51,8.20
2012,10,01,04,52,8.20
2012,10,01,04,53,8.20
2012,10,01,04,54,8.20
2012,10,01,04,55,8.20
2012,10,01,04,56,8.20
2012,10,01,04,57,8.20
2012,10,01,04,58,8.20
2012,10,01,04,59,8.20
2012,10,01,05,00,8.20
2012,10,01,05,01,8.20
2012,10,01,05,02,8.20
2012,10,01,05,03,8.20
2012,10,01,05,04,8.20
2012,10,01,05,05,8.20
2012,10,01,05,06,8.20
2012,10,01,05,07,8.20
2012,10,01,05,08,8.20
2012,10,01,05,09,8.10
2012,10,01,05,10,8.20
2012,10,01,05,11,8.10
2012,10,01,05,12,8.10
2012,10,01,05,13,8.10
2012,10,01,05,14,8.10
2012,10,01,05,15,8.10
2012,10,01,05,16,8.10
2012,10,01,05,17,8.10
2012,10,01,05,18,8.10
2012,10,01,05,19,8.10
2012,10,01,05,20,8.10
2012,10,01,05,21,8.10
2012,10,01,05,22,8.10
2012,10,01,05,23,8.10
2012,10,01,05,24,8.10
2012,10,01,05,25,8.10
2012,10,01,05,26,8.10
2012,10,01,05,27,8.10
2012,10,01,05,28,8.10
2012,10,01,05,29,8.10
2012,10,01,05,30,8.10
2012,10,01,05,31,8.10
2012,10,01,05,32,8.10
2012,10,01,05,33,8.10
2012,10,01,05,34,8.10
2012,10,01,05,35,8.10
2012,10,01,05,36,8.10
2012,10,01,05,37,8.10
2012,10,01,05,38,8.10
2012,10,01,05,39,8.10
2012,10,01,05,40,8.10
2012,10,01,05,41,8.10
2012,10,01,05,42,8.10
2012,10,01,05,43,8.10
2012,10,01,05,44,8.10
2012,10,01,05,45,8.10
2012,10,01,05,46,8.10
2012,10,01,05,47,8.10
2012,10,01,05,48,8.10
2012,10,01,05,49,8.10
2012,10,01,05,50,8.10
2012,10,01,05,51,8.10
2012,10,01,05,52,8.10
2012,10,01,05,53,8.10
2012,10,01,05,54,8.10
2012,10,01,05,55,8.10
2012,10,01,05,56,8.10
2012,10,01,05,57,8.10
2012,10,01,05,58,8.00
2012,10,01,05,59,8.00
2012,10,01,06,00,8.00
2012,10,01,06,01,8.00
2012,10,01,06,02,8.00
2012,10,01,06,03,8.00
2012,10,01,06,04,8.00
2012,10,01,06,05,8.00
2012,10,01,06,06,8.00
2012,10,01,06,07,8.00
2012,10,01,06,08,8.00
2012,10,01,06,09,8.00
2012,10,01,06,10,8.00
2012,10,01,06,11,8.00
2012,10,01,06,12,8.00
2012,10,01,06,13,8.00
2012,10,01,06,14,8.00
2012,10,01,06,15,8.00
2012,10,01,06,16,8.00
2012,10,01,06,17,8.00
2012,10,01,06,18,8.00
2012,10,01,06,19,8.00
2012,10,01,06,20,7.90
2012,10,01,06,21,7.90
2012,10,01,06,22,7.90
2012,10,01,06,23,7.90
2012,10,01,06,24,8.00
2012,10,01,06,25,7.90
2012,10,01,06,26,7.90
2012,10,01,06,27,7.90
2012,10,01,06,28,7.90
2012,10,01,06,29,7.90
2012,10,01,06,30,7.90
2012,10,01,06,31,7.90
2012,10,01,06,32,7.90
2012,10,01,06,33,7.90
2012,10,01,06,34,7.90
2012,10,01,06,35,7.90
2012,10,01,06,36,7.90
2012,10,01,06,37,7.90
2012,10,01,06,38,7.90
2012,10,01,06,39,7.90
2012,10,01,06,40,7.90
2012,10,01,06,41,7.90
2012,10,01,06,42,7.90
2012,10,01,06,43,7.90
2012,10,01,06,44,7.90
2012,10,01,06,45,7.90
2012,10,01,06,46,7.90
2012,10,01,06,47,7.90
2012,10,01,06,48,7.80
2012,10,01,06,49,7.80
2012,10,01,06,50,7.80
2012,10,01,06,51,7.80
2012,10,01,06,52,7.80
2012,10,01,06,53,7.80
2012,10,01,06,54,7.80
2012,10,01,06,55,7.80
2012,10,01,06,56,7.80
2012,10,01,06,57,7.80
2012,10,01,06,58,7.80
2012,10,01,06,59,7.80
2012,10,01,07,00,7.80
2012,10,01,07,01,7.80
2012,10,01,07,02,7.80
2012,10,01,07,03,7.80
2012,10,01,07,04,7.80
2012,10,01,07,05,7.80
2012,10,01,07,06,7.80
2012,10,01,07,07,7.80
2012,10,01,07,08,7.70
2012,10,01,07,09,7.70
2012,10,01,07,10,7.70
2012,10,01,07,11,7.70
2012,10,01,07,12,7.70
2012,10,01,07,13,7.70
2012,10,01,07,14,7.70
2012,10,01,07,15,7.70
2012,10,01,07,16,7.70
2012,10,01,07,17,7.80
2012,10,01,07,18,7.70
2012,10,01,07,19,7.80
2012,10,01,07,20,7.80
2012,10,01,07,21,7.80
2012,10,01,07,22,7.80
2012,10,01,07,23,7.80
2012,10,01,07,24,7.80
2012,10,01,07,25,7.80
2012,10,01,07,26,7.80
2012,10,01,07,27,7.80
2012,10,01,07,28,7.80
2012,10,01,07,29,7.80
2012,10,01,07,30,7.80
2012,10,01,07,31,7.90
2012,10,01,07,32,7.90
2012,10,01,07,33,7.90
2012,10,01,07,34,7.90
2012,10,01,07,35,7.90
2012,10,01,07,36,7.90
2012,10,01,07,37,7.90
2012,10,01,07,38,7.90
2012,10,01,07,39,7.90
2012,10,01,07,40,8.00
2012,10,01,07,41,8.00
2012,10,01,07,42,8.00
2012,10,01,07,43,8.00
2012,10,01,07,44,8.10
2012,10,01,07,45,8.10
2012,10,01,07,46,8.10
2012,10,01,07,47,8.10
2012,10,01,07,48,8.10
2012,10,01,07,49,8.10
2012,10,01,07,50,8.10
2012,10,01,07,51,8.10
2012,10,01,07,52,8.10
2012,10,01,07,53,8.20
2012,10,01,07,54,8.20
2012,10,01,07,55,8.20
2012,10,01,07,56,8.20
2012,10,01,07,57,8.20
2012,10,01,07,58,8.20
2012,10,01,07,59,8.20
2012,10,01,08,00,8.20
2012,10,01,08,01,8.20
2012,10,01,08,02,8.20
2012,10,01,08,03,8.20
2012,10,01,08,04,8.20
2012,10,01,08,05,8.20
2012,10,01,08,06,8.20
2012,10,01,08,07,8.20
2012,10,01,08,08,8.30
2012,10,01,08,09,8.30
2012,10,01,08,10,8.30
2012,10,01,08,11,8.40
2012,10,01,08,12,8.40
2012,10,01,08,13,8.40
2012,10,01,08,14,8.50
2012,10,01,08,15,8.60
2012,10,01,08,16,8.70
2012,10,01,08,17,8.70
2012,10,01,08,18,8.70
2012,10,01,08,19,8.80
2012,10,01,08,20,8.90
2012,10,01,08,21,9.00
2012,10,01,08,22,9.00
2012,10,01,08,23,9.10
2012,10,01,08,24,9.10
2012,10,01,08,25,9.20
2012,10,01,08,26,9.30
2012,10,01,08,27,9.30
2012,10,01,08,28,9.40
2012,10,01,08,29,9.40
2012,10,01,08,30,9.50
2012,10,01,08,31,9.50
2012,10,01,08,32,9.60
2012,10,01,08,33,9.60
2012,10,01,08,34,9.70
2012,10,01,08,35,9.70
2012,10,01,08,36,9.80
2012,10,01,08,37,9.90
2012,10,01,08,38,10.00
2012,10,01,08,39,10.10
2012,10,01,08,40,10.10
2012,10,01,08,41,10.20
2012,10,01,08,42,10.30
2012,10,01,08,43,10.30
2012,10,01,08,44,10.40
2012,10,01,08,45,10.50
2012,10,01,08,46,10.50
2012,10,01,08,47,10.60
2012,10,01,08,48,10.70
2012,10,01,08,49,10.70
2012,10,01,08,50,10.80
2012,10,01,08,51,10.80
2012,10,01,08,52,10.90
2012,10,01,08,53,11.00
2012,10,01,08,54,11.00
2012,10,01,08,55,11.10
2012,10,01,08,56,11.10
2012,10,01,08,57,11.10
2012,10,01,08,58,11.20
2012,10,01,08,59,11.20
2012,10,01,09,00,11.30
2012,10,01,09,01,11.30
2012,10,01,09,02,11.30
2012,10,01,09,03,11.40
2012,10,01,09,04,11.50
2012,10,01,09,05,11.50
2012,10,01,09,06,11.60
2012,10,01,09,07,11.70
2012,10,01,09,08,11.80
2012,10,01,09,09,11.80
2012,10,01,09,10,11.80
2012,10,01,09,11,11.90
2012,10,01,09,12,11.90
2012,10,01,09,13,11.90
2012,10,01,09,14,11.90
2012,10,01,09,15,12.00
2012,10,01,09,16,12.00
2012,10,01,09,17,12.10
2012,10,01,09,18,12.10
2012,10,01,09,19,12.20
2012,10,01,09,20,12.20
2012,10,01,09,21,12.30
2012,10,01,09,22,12.40
2012,10,01,09,23,12.40
2012,10,01,09,24,12.50
2012,10,01,09,25,12.50
2012,10,01,09,26,12.60
2012,10,01,09,27,12.70
2012,10,01,09,28,12.80
2012,10,01,09,29,12.80
2012,10,01,09,30,12.90
2012,10,01,09,31,12.90
2012,10,01,09,32,13.00
2012,10,01,09,33,13.10
2012,10,01,09,34,13.20
2012,10,01,09,35,13.30
2012,10,01,09,36,13.40
2012,10,01,09,37,13.50
2012,10,01,09,38,13.50
2012,10,01,09,39,13.60
2012,10,01,09,40,13.60
2012,10,01,09,41,13.60
2012,10,01,09,42,13.70
2012,10,01,09,43,13.70
2012,10,01,09,44,13.70
2012,10,01,09,45,13.70
2012,10,01,09,46,13.70
2012,10,01,09,47,13.70
2012,10,01,09,48,13.70
2012,10,01,09,49,13.70
2012,10,01,09,50,13.70
2012,10,01,09,51,13.70
2012,10,01,09,52,13.70
2012,10,01,09,53,13.60
2012,10,01,09,54,13.60
2012,10,01,09,55,13.60
2012,10,01,09,56,13.50
2012,10,01,09,57,13.50
2012,10,01,09,58,13.40
2012,10,01,09,59,13.40
2012,10,01,10,00,13.30
2012,10,01,10,01,13.30
2012,10,01,10,02,13.20
2012,10,01,10,03,13.20
2012,10,01,10,04,13.20
2012,10,01,10,05,13.20
2012,10,01,10,06,13.20
2012,10,01,10,07,13.10
2012,10,01,10,08,13.10
2012,10,01,10,09,13.10
2012,10,01,10,10,13.00
2012,10,01,10,11,13.00
2012,10,01,10,12,13.00
2012,10,01,10,13,12.90
2012,10,01,10,14,12.90
2012,10,01,10,15,12.80
2012,10,01,10,16,12.80
2012,10,01,10,17,12.80
2012,10,01,10,18,12.80
2012,10,01,10,19,12.70
2012,10,01,10,20,12.70
2012,10,01,10,21,12.70
2012,10,01,10,22,12.70
2012,10,01,10,23,12.80
2012,10,01,10,24,12.80
2012,10,01,10,25,12.80
2012,10,01,10,26,12.80
2012,10,01,10,27,12.80
2012,10,01,10,28,12.80
2012,10,01,10,29,12.70
2012,10,01,10,30,12.70
2012,10,01,10,31,12.80
2012,10,01,10,32,12.80
2012,10,01,10,33,12.80
2012,10,01,10,34,12.90
2012,10,01,10,35,12.90
2012,10,01,10,36,13.00
2012,10,01,10,37,13.00
2012,10,01,10,38,13.10
2012,10,01,10,39,13.10
2012,10,01,10,40,13.10
2012,10,01,10,41,13.10
2012,10,01,10,42,13.10
2012,10,01,10,43,13.20
2012,10,01,10,44,13.20
2012,10,01,10,45,13.20
2012,10,01,10,46,13.20
2012,10,01,10,47,13.20
2012,10,01,10,48,13.20
2012,10,01,10,49,13.20
2012,10,01,10,50,13.30
2012,10,01,10,51,13.30
2012,10,01,10,52,13.40
2012,10,01,10,53,13.50
2012,10,01,10,54,13.60
2012,10,01,10,55,13.70
2012,10,01,10,56,13.80
2012,10,01,10,57,13.90
2012,10,01,10,58,13.90
2012,10,01,10,59,14.00
2012,10,01,11,00,14.00
2012,10,01,11,01,14.10
2012,10,01,11,02,14.20
2012,10,01,11,03,14.20
2012,10,01,11,04,14.30
2012,10,01,11,05,14.30
2012,10,01,11,06,14.30
2012,10,01,11,07,14.40
2012,10,01,11,08,14.40
2012,10,01,11,09,14.50
2012,10,01,11,10,14.60
2012,10,01,11,11,14.70
2012,10,01,11,12,14.80
2012,10,01,11,13,14.90
2012,10,01,11,14,15.00
2012,10,01,11,15,15.10
2012,10,01,11,16,15.10
2012,10,01,11,17,15.20
2012,10,01,11,18,15.30
2012,10,01,11,19,15.30
2012,10,01,11,20,15.40
2012,10,01,11,21,15.50
2012,10,01,11,22,15.60
2012,10,01,11,23,15.70
2012,10,01,11,24,15.80
2012,10,01,11,25,15.90
2012,10,01,11,26,16.00
2012,10,01,11,27,16.10
2012,10,01,11,28,16.20
2012,10,01,11,29,16.30
2012,10,01,11,30,16.30
2012,10,01,11,31,16.40
2012,10,01,11,32,16.50
2012,10,01,11,33,16.50
2012,10,01,11,34,16.60
2012,10,01,11,35,16.70
2012,10,01,11,36,16.70
2012,10,01,11,37,16.80
2012,10,01,11,38,16.90
2012,10,01,11,39,17.00
2012,10,01,11,40,17.10
2012,10,01,11,41,17.20
2012,10,01,11,42,17.40
2012,10,01,11,43,17.50
2012,10,01,11,44,17.60
2012,10,01,11,45,17.70
2012,10,01,11,46,17.70
2012,10,01,11,47,17.70
2012,10,01,11,48,17.70
2012,10,01,11,49,17.60
2012,10,01,11,50,17.60
2012,10,01,11,51,17.70
2012,10,01,11,52,17.70
2012,10,01,11,53,17.70
2012,10,01,11,54,17.80
2012,10,01,11,55,17.80
2012,10,01,11,56,17.80
2012,10,01,11,57,17.80
2012,10,01,11,58,17.80
2012,10,01,11,59,17.80
2012,10,01,12,00,17.90
2012,10,01,12,01,18.00
2012,10,01,12,02,18.10
2012,10,01,12,03,18.20
2012,10,01,12,04,18.30
2012,10,01,12,05,18.40
2012,10,01,12,06,18.60
2012,10,01,12,07,18.70
2012,10,01,12,08,18.80
2012,10,01,12,09,18.90
2012,10,01,12,10,18.90
2012,10,01,12,11,19.00
2012,10,01,12,12,19.10
2012,10,01,12,13,19.20
2012,10,01,12,14,19.30
2012,10,01,12,15,19.40
2012,10,01,12,16,19.50
2012,10,01,12,17,19.60
2012,10,01,12,18,19.70
2012,10,01,12,19,19.80
2012,10,01,12,20,19.80
2012,10,01,12,21,19.90
2012,10,01,12,22,19.90
2012,10,01,12,23,20.00
2012,10,01,12,24,20.10
2012,10,01,12,25,20.10
2012,10,01,12,26,20.10
2012,10,01,12,27,20.10
2012,10,01,12,28,20.10
2012,10,01,12,29,20.10
2012,10,01,12,30,20.20
2012,10,01,12,31,20.20
2012,10,01,12,32,20.20
2012,10,01,12,33,20.20
2012,10,01,12,34,20.10
2012,10,01,12,35,20.10
2012,10,01,12,36,20.10
2012,10,01,12,37,20.10
2012,10,01,12,38,20.10
2012,10,01,12,39,20.10
2012,10,01,12,40,20.10
2012,10,01,12,41,20.10
2012,10,01,12,42,20.10
2012,10,01,12,43,20.20
2012,10,01,12,44,20.10
2012,10,01,12,45,20.10
2012,10,01,12,46,20.10
2012,10,01,12,47,20.10
2012,10,01,12,48,20.10
2012,10,01,12,49,20.10
2012,10,01,12,50,20.10
2012,10,01,12,51,20.10
2012,10,01,12,52,20.20
2012,10,01,12,53,20.10
2012,10,01,12,54,20.10
2012,10,01,12,55,20.20
2012,10,01,12,56,20.30
2012,10,01,12,57,20.30
2012,10,01,12,58,20.40
2012,10,01,12,59,20.40
2012,10,01,13,00,20.50
2012,10,01,13,01,20.50
2012,10,01,13,02,20.60
2012,10,01,13,03,20.60
2012,10,01,13,04,20.60
2012,10,01,13,05,20.60
2012,10,01,13,06,20.70
2012,10,01,13,07,20.70
2012,10,01,13,08,20.70
2012,10,01,13,09,20.70
2012,10,01,13,10,20.70
2012,10,01,13,11,20.70
2012,10,01,13,12,20.70
2012,10,01,13,13,20.80
2012,10,01,13,14,20.80
2012,10,01,13,15,20.70
2012,10,01,13,16,20.70
2012,10,01,13,17,20.70
2012,10,01,13,18,20.70
2012,10,01,13,19,20.70
2012,10,01,13,20,20.70
2012,10,01,13,21,20.70
2012,10,01,13,22,20.70
2012,10,01,13,23,20.80
2012,10,01,13,24,20.80
2012,10,01,13,25,20.90
2012,10,01,13,26,21.00
2012,10,01,13,27,21.10
2012,10,01,13,28,21.20
2012,10,01,13,29,21.20
2012,10,01,13,30,21.20
2012,10,01,13,31,21.20
2012,10,01,13,32,21.20
2012,10,01,13,33,21.30
2012,10,01,13,34,21.30
2012,10,01,13,35,21.30
2012,10,01,13,36,21.30
2012,10,01,13,37,21.40
2012,10,01,13,38,21.40
2012,10,01,13,39,21.40
2012,10,01,13,40,21.40
2012,10,01,13,41,21.40
2012,10,01,13,42,21.50
2012,10,01,13,43,21.50
2012,10,01,13,44,21.50
2012,10,01,13,45,21.60
2012,10,01,13,46,21.60
2012,10,01,13,47,21.60
2012,10,01,13,48,21.60
2012,10,01,13,49,21.60
2012,10,01,13,50,21.70
2012,10,01,13,51,21.70
2012,10,01,13,52,21.70
2012,10,01,13,53,21.80
2012,10,01,13,54,21.90
2012,10,01,13,55,21.90
2012,10,01,13,56,22.00
2012,10,01,13,57,22.00
2012,10,01,13,58,22.10
2012,10,01,13,59,22.10
2012,10,01,14,00,22.20
2012,10,01,14,01,22.20
2012,10,01,14,02,22.30
2012,10,01,14,03,22.30
2012,10,01,14,04,22.30
2012,10,01,14,05,22.30
2012,10,01,14,06,22.30
2012,10,01,14,07,22.30
2012,10,01,14,08,22.30
2012,10,01,14,09,22.30
2012,10,01,14,10,22.30
2012,10,01,14,11,22.30
2012,10,01,14,12,22.30
2012,10,01,14,13,22.40
2012,10,01,14,14,22.40
2012,10,01,14,15,22.40
2012,10,01,14,16,22.40
2012,10,01,14,17,22.40
2012,10,01,14,18,22.50
2012,10,01,14,19,22.50
2012,10,01,14,20,22.60
2012,10,01,14,21,22.60
2012,10,01,14,22,22.60
2012,10,01,14,23,22.60
2012,10,01,14,24,22.60
2012,10,01,14,25,22.60
2012,10,01,14,26,22.60
2012,10,01,14,27,22.60
2012,10,01,14,28,22.60
2012,10,01,14,29,22.60
2012,10,01,14,30,22.50
2012,10,01,14,31,22.50
2012,10,01,14,32,22.40
2012,10,01,14,33,22.30
2012,10,01,14,34,22.30
2012,10,01,14,35,22.30
2012,10,01,14,36,22.20
2012,10,01,14,37,22.20
2012,10,01,14,38,22.10
2012,10,01,14,39,22.10
2012,10,01,14,40,22.00
2012,10,01,14,41,22.00
2012,10,01,14,42,21.90
2012,10,01,14,43,21.90
2012,10,01,14,44,21.80
2012,10,01,14,45,21.80
2012,10,01,14,46,21.70
2012,10,01,14,47,21.70
2012,10,01,14,48,21.70
2012,10,01,14,49,21.60
2012,10,01,14,50,21.60
2012,10,01,14,51,21.60
2012,10,01,14,52,21.60
2012,10,01,14,53,21.50
2012,10,01,14,54,21.50
2012,10,01,14,55,21.40
2012,10,01,14,56,21.40
2012,10,01,14,57,21.40
2012,10,01,14,58,21.30
2012,10,01,14,59,21.30
2012,10,01,15,00,21.30
2012,10,01,15,01,21.30
2012,10,01,15,02,21.30
2012,10,01,15,03,21.20
2012,10,01,15,04,21.20
2012,10,01,15,05,21.20
2012,10,01,15,06,21.30
2012,10,01,15,07,21.30
2012,10,01,15,08,21.30
2012,10,01,15,09,21.30
2012,10,01,15,10,21.20
2012,10,01,15,11,21.20
2012,10,01,15,12,21.20
2012,10,01,15,13,21.20
2012,10,01,15,14,21.10
2012,10,01,15,15,21.10
2012,10,01,15,16,21.10
2012,10,01,15,17,21.10
2012,10,01,15,18,21.00
2012,10,01,15,19,21.00
2012,10,01,15,20,20.90
2012,10,01,15,21,20.90
2012,10,01,15,22,20.90
2012,10,01,15,23,20.90
2012,10,01,15,24,20.90
2012,10,01,15,25,20.80
2012,10,01,15,26,20.80
2012,10,01,15,27,20.80
2012,10,01,15,28,20.80
2012,10,01,15,29,20.80
2012,10,01,15,30,20.80
2012,10,01,15,31,20.80
2012,10,01,15,32,20.70
2012,10,01,15,33,20.70
2012,10,01,15,34,20.80
2012,10,01,15,35,20.80
2012,10,01,15,36,20.80
2012,10,01,15,37,20.80
2012,10,01,15,38,20.80
2012,10,01,15,39,20.90
2012,10,01,15,40,20.90
2012,10,01,15,41,20.90
2012,10,01,15,42,20.90
2012,10,01,15,43,21.00
2012,10,01,15,44,21.00
2012,10,01,15,45,21.00
2012,10,01,15,46,21.00
2012,10,01,15,47,21.00
2012,10,01,15,48,21.10
2012,10,01,15,49,21.10
2012,10,01,15,50,21.20
2012,10,01,15,51,21.20
2012,10,01,15,52,21.30
2012,10,01,15,53,21.30
2012,10,01,15,54,21.30
2012,10,01,15,55,21.40
2012,10,01,15,56,21.40
2012,10,01,15,57,21.40
2012,10,01,15,58,21.40
2012,10,01,15,59,21.40
2012,10,01,16,00,21.40
2012,10,01,16,01,21.40
2012,10,01,16,02,21.40
2012,10,01,16,03,21.40
2012,10,01,16,04,21.50
2012,10,01,16,05,21.50
2012,10,01,16,06,21.60
2012,10,01,16,07,21.60
2012,10,01,16,08,21.70
2012,10,01,16,09,21.70
2012,10,01,16,10,21.70
2012,10,01,16,11,21.70
2012,10,01,16,12,21.70
2012,10,01,16,13,21.70
2012,10,01,16,14,21.70
2012,10,01,16,15,21.80
2012,10,01,16,16,21.80
2012,10,01,16,17,21.80
2012,10,01,16,18,21.80
2012,10,01,16,19,21.80
2012,10,01,16,20,21.90
2012,10,01,16,21,21.90
2012,10,01,16,22,21.90
2012,10,01,16,23,21.90
2012,10,01,16,24,21.90
2012,10,01,16,25,21.90
2012,10,01,16,26,21.80
2012,10,01,16,27,21.80
2012,10,01,16,28,21.70
2012,10,01,16,29,21.60
2012,10,01,16,30,21.60
2012,10,01,16,31,21.60
2012,10,01,16,32,21.50
2012,10,01,16,33,21.50
2012,10,01,16,34,21.40
2012,10,01,16,35,21.40
2012,10,01,16,36,21.40
2012,10,01,16,37,21.40
2012,10,01,16,38,21.40
2012,10,01,16,39,21.40
2012,10,01,16,40,21.40
2012,10,01,16,41,21.40
2012,10,01,16,42,21.40
2012,10,01,16,43,21.30
2012,10,01,16,44,21.40
2012,10,01,16,45,21.40
2012,10,01,16,46,21.40
2012,10,01,16,47,21.40
2012,10,01,16,48,21.40
2012,10,01,16,49,21.40
2012,10,01,16,50,21.40
2012,10,01,16,51,21.40
2012,10,01,16,52,21.40
2012,10,01,16,53,21.30
2012,10,01,16,54,21.30
2012,10,01,16,55,21.20
2012,10,01,16,56,21.20
2012,10,01,16,57,21.20
2012,10,01,16,58,21.10
2012,10,01,16,59,21.00
2012,10,01,17,00,21.00
2012,10,01,17,01,20.90
2012,10,01,17,02,20.90
2012,10,01,17,03,20.80
2012,10,01,17,04,20.80
2012,10,01,17,05,20.80
2012,10,01,17,06,20.70
2012,10,01,17,07,20.60
2012,10,01,17,08,20.50
2012,10,01,17,09,20.30
2012,10,01,17,10,20.30
2012,10,01,17,11,20.20
2012,10,01,17,12,20.10
2012,10,01,17,13,20.00
2012,10,01,17,14,19.90
2012,10,01,17,15,19.90
2012,10,01,17,16,19.80
2012,10,01,17,17,19.70
2012,10,01,17,18,19.70
2012,10,01,17,19,19.60
2012,10,01,17,20,19.60
2012,10,01,17,21,19.50
2012,10,01,17,22,19.50
2012,10,01,17,23,19.40
2012,10,01,17,24,19.40
2012,10,01,17,25,19.30
2012,10,01,17,26,19.30
2012,10,01,17,27,19.30
2012,10,01,17,28,19.30
2012,10,01,17,29,19.30
2012,10,01,17,30,19.30
2012,10,01,17,31,19.20
2012,10,01,17,32,19.20
2012,10,01,17,33,19.20
2012,10,01,17,34,19.20
2012,10,01,17,35,19.10
2012,10,01,17,36,19.10
2012,10,01,17,37,19.10
2012,10,01,17,38,19.10
2012,10,01,17,39,19.00
2012,10,01,17,40,19.00
2012,10,01,17,41,18.90